|
NORAD ID: 18962 Int'l Code: 1963-014DN
Perigee: 2,982.5 km
Apogee: 4,211.7 km
Inclination: 87.2 °
Period: 165.1 minutes
Semi major axis: 9968 km
Launch date: May 9, 1963
Source: United States (US)
Two Line Element Set (TLE):
1 18962U 63014DN 13143.57510589 .00000279 00000-0 10000-3 0 5653
2 18962 087.2063 008.6091 0616551 095.7354 271.4512 08.72337143810172
Source:
NASA's NSSDC Master Catalog entry for WESTFORD NEEDLES
|